NOAA 16 DEB, 41408

Orbit data source: Space-Track

NOAA 16 DEB, 41408 is space debris in SSO originally from a launch on Thu, 21 Sep 2000 UTC launched from the Air Force Western Test Range (AFWTR). Debris objects in space refer to the collection of defunct objects orbiting the Earth. Examples of debris include non-operational satellites, rocket bodies, and fragments generated from explosions, collisions, or faulty payload assembly.

Loading next visibility...
Identifier
41408, 2000-055KM
Orbit
SSO
Country
Flag of USUS
Related business
Manufacturer
Unknown
Mission
Spacecraft
Bus & Motor
Unknown
Mass
Unknown
Launch date (UTC)
2000-09-21 (26 years ago)
Launch vehicle
Unknown
Launch site
Air Force Western Test Range (AFWTR)
Object type
Payload
Rocket body
Debris
Shape & HBR
Unknown shape, 0.1 m
Radar Cross Section
Medium (>0.1 m² and <1 m²)

Expand to show TLE details & history
Last TLE update: 5 hours ago

TLE from 5 hours ago
0 NOAA 16 DEB
1 41408U 00055KM  26178.52786356  .00003973  00000-0  14279-2 0  9990
2 41408  98.7243 276.3920 0010836 204.1768 155.8909 14.34346522536721
Epoch: 2026-06-27T12:40Z
TLE epoch observation values (Epoch: 2026-06-27T12:40:07.411Z)
Latitude
-0.00004°
Longitude
170.7204°
Altitude
787.252 km
Speed
7.456 km/s
True Right ascension
18h 25m 34s
True Declination
0° 00' 00"
Sunlit
Object was in full shadow at epoch
Visualization orbit readout
Latitude
Unknown
Longitude
Unknown
Altitude
Unknown
Speed
Unknown
Apparent Right ascension
Unknown
Apparent Declination
Unknown
Sunlit
N/A
Visualization observer readout
Local Sidereal Time
04:40:12
Azimuth
Unknown
Elevation
Unknown
Doppler factor
Unknown
Orbital elements
Apogee altitude
782.129 km
Perigee altitude
766.629 km
Semi-major axis
7,152.516 km
Eccentricity
0.00108
Inclination
98.7243°
RAAN
276.392°
Arg. of periapsis
204.1768°
True anomaly
155.94156°
Mean anomaly
155.8909°
Eccentric anomaly
155.91624°
Mean motion
3.58802 °/min
Orbital period
100.33 mins
BSTAR
0.0014279
Loading maneuver chart data...
Computing Atmospheric mass density...
Loading historical data...
Loading historical data...
Loading historical data...
Loading historical data...
Loading historical data...
Loading historical data...
Loading historical data...

Documentation

Showing up to 5 results
|